METEOR 2-11 DEB

Satellite information

Favourite Embed

Satellite Type and Status

DEBRISIN ORBIT

Key statistics

Satellite METEOR 2-11 DEB at a glance.

Uptime

14976

Days in orbit

Revolutions

≈ 14.0

Per day

Orbit

LEO

Low Earth Orbit

Inclination

82.5

Latest

Satellite identification and parameters

Extended collection of information and parameters for METEOR 2-11 DEB.

Object identification

Identified? True

Debris? True

Object name: METEOR 2-11 DEB

International designator: 1984-072AA

Object number (NORAD): 60005

Object ID (CCSDS): 60005

Country: COMMONWEALTH OF INDEPENDENT STATES (CIS)

Current information (Y/N): Y

RCS size: SMALL

Orbital parameters

Period: 102.922 minutes

Inclination: 82.5199 deg

SMA: 7275.002 km

Apoapsis: 914.336 km

Periapsis: 879.398 km

RAAN: 288.1169 deg

Eccentricy: 0.0024012

Argument of periapsis: 223.8886 deg

Mean anomaly: 136.0376 deg

Mean motion: 13.9911389 rev/day

Mean motion (dot): 0.0000237 rev/day2

B* drag term: 0.0016233 1/REarth

Two-line elements (TLE)

Creation date: July 2, 2025, 5:47 p.m.

Reference frame: TEME

Reference center: EARTH

Epoch: July 2, 2025, 12:18 a.m. UTC

TLE line 0: 0 METEOR 2-11 DEB

TLE line 1: 1 60005U 84072AA 25183.01259248 .00002370 00000-0 16233-2 0 9991

TLE line 2: 2 60005 82.5199 288.1169 0024012 223.8886 136.0376 13.99113890387927

Live tracking on map

Real-time ground track for satellite METEOR 2-11 DEB.

In-orbit conjunctions

A list of the most updated potential collisions computed for object METEOR 2-11 DEB.

Target Orbit TCA Probability of collision Miss distance Type
COSMOS 1275 DEB LEO 2025-06-07 17:55:09 0.0001086088 199.0 (m) DEBRIS
DMSP 5D-2 F13 DEB SSO 2025-02-01 05:23:41 0.0001276899 215.0 (m) DEBRIS
SL-16 DEB LEO 2024-12-01 15:13:22 0.000174815 329.0 (m) DEBRIS
YAOGAN 7 DEB SSO 2024-12-01 10:51:36 0.000104366 551.0 (m) DEBRIS
FENGYUN 1C DEB SSO 2024-09-24 22:16:36 0.0004092742 119.0 (m) DEBRIS

Associated space launch

Second generation soviet meteorological satellite

METEOR 2-11 DEB was lifted into orbit during the mission ‘Tsiklon-3 | Meteor-2 11’, on board a Tsiklon-3 space rocket.

The launch took place on July 5, 1984, 3:35 a.m. from 32/2.

For more information about the launch, click the button.

Launch to space Tsiklon-3 | Meteor-2 11
Tsiklon-3 | Meteor-2 11

Agency: N/A

Status: Launch Successful

Launch date: July 5, 1984, 3:35 a.m. UTC

Rocket: Tsiklon-3

Launch pad: 32/2

Location: Plesetsk Cosmodrome, Russian Federation

...

Latest news about this satellite

There are no fresh news available about this satellite. Check back as we update our databases every day.


Newsletter sign-up

Weekly statistics, charts and insights to help you stay on top of the space industry.